Flag for Canada Weather past 2 weeks in Aklavik, Northwest Territories, Canada

Now
1 °F

Light snow. More clouds than sun.


Feels Like: 1 °F
Forecast: -10 / -8 °F
Wind: 2 mph from Southeast

Location: Inuvik

Current Time: Dec 21, 2014 at 5:57:07 PM

Latest Report: Dec 21, 2014 at 5:00 PM


Visibility: 10 mi

Pressure: 29.80 "Hg

Humidity: 85%

Dew point: -2 °F

Location of AklavikLocation

Historic Weather in Aklavik — Graph

°F

Aklavik temperature yesterday

Maximum temperature yesterday: 7 °F (at 1:00 AM)
Minimum temperature yesterday: -4 °F (at 1:00 PM)
Average temperature yesterday: 1 °F

Past Weeks' High & Low Weather Summary

 TemperatureHumidityPressure
High7 °F (Dec 20, 1:00 AM)92% (Dec 17, 4:00 AM)30.37 "Hg (Dec 17, 4:00 AM)
Low-35 °F (Dec 10, 8:00 AM)66% (Dec 10, 9:00 AM)29.62 "Hg (Dec 15, 6:00 AM)
Average-8 °F78%29.88 "Hg
* Reported Dec 6 4:00 PM — Dec 21 4:00 PM, Aklavik, Weather by CustomWeather, © 2014

Note: Actual official high and low records may vary slightly from our data, if they occured in-between our weather recording intervals... More about our weather records

Advertising

Aklavik weather history for previous 24 hours

 ConditionsComfort  
Time TempWeatherWind HumidityBarometerVisibility
4:00 PM
Dec 21
1 °FLight snow. Overcast.5 mph85%29.80 "Hg6 mi
3:00 PM1 °FLight snow. Overcast.5 mph85%29.79 "Hg10 mi
2:00 PM1 °FLight snow. Overcast.5 mph78%29.78 "Hg10 mi
1:00 PM1 °FMostly cloudy.5 mph78%29.77 "Hg15 mi
12:00 PM0 °FMore clouds than sun.6 mph84%29.76 "Hg15 mi
11:00 AM0 °FMore clouds than sun.6 mph84%29.76 "Hg15 mi
10:00 AM0 °FMore clouds than sun.6 mph78%29.75 "Hg15 mi
9:00 AM0 °FOvercast.5 mph78%29.74 "Hg15 mi
8:00 AM-2 °FOvercast.6 mph84%29.73 "Hg15 mi
7:00 AM-2 °FOvercast.6 mph84%29.73 "Hg15 mi
6:00 AM-2 °FLight snow. Mostly cloudy.7 mph84%29.72 "Hg15 mi
5:00 AM0 °FLight snow. Mostly cloudy.7 mph84%29.72 "Hg15 mi
4:00 AM0 °FLight snow. Overcast.6 mph78%29.71 "Hg15 mi
3:00 AM0 °FPassing clouds.7 mph78%29.70 "Hg15 mi
2:00 AM0 °FLight snow. Overcast.6 mph84%29.69 "Hg15 mi
1:00 AM1 °FLight snow. Mostly cloudy.6 mph78%29.68 "Hg10 mi
12:00 AM1 °FLight snow. Mostly cloudy.5 mph85%29.67 "Hg3 mi
11:00 PM
Dec 20
1 °FLight snow. Mostly cloudy.2 mph85%29.67 "Hg3 mi
10:00 PM0 °FLight snow. Overcast.No wind84%29.67 "Hg8 mi
9:00 PM0 °FLight snow. Overcast.No wind84%29.68 "Hg10 mi
8:00 PM0 °FLight snow. Mostly cloudy.5 mph84%29.67 "Hg10 mi
7:54 PM0 °FLight snow. Mostly cloudy.6 mph84%29.68 "Hg10 mi
7:00 PM0 °FLight snow. More clouds than sun.3 mph78%29.67 "Hg15 mi
6:00 PM0 °FLight snow. More clouds than sun.3 mph78%29.68 "Hg15 mi
5:00 PM-2 °FLight snow. Overcast.6 mph84%29.69 "Hg15 mi
Weather by CustomWeather, © 2014

See weather overviewHow to use our weather pages